Flag for U.S.A. Weather past 2 weeks in Bloomington, Indiana, U.S.A.

Now
36 °F

Sunny.


Feels Like: 31 °F
Forecast: 22 / 35 °F
Wind: 6 mph from North

Location: Monroe County Airport

Current Time: Jan 30, 2015 at 5:31:29 PM

Latest Report: Jan 30, 2015 at 3:53 PM


Visibility: 10 mi

Pressure: 30.46 "Hg

Humidity: 42%

Dew point: 15 °F

Location of BloomingtonLocation

Historic Weather in Bloomington — Graph

°F

Bloomington temperature yesterday

Maximum temperature yesterday: 48 °F (at 8:53 AM)
Minimum temperature yesterday: 34 °F (at 6:53 PM)
Average temperature yesterday: 38 °F

Past Weeks' High & Low Weather Summary

 TemperatureHumidityPressure
High52 °F (Jan 19, 2:53 PM)97% (Jan 18, 2:53 AM)30.52 "Hg (Jan 18, 2:53 AM)
Low16 °F (Jan 28, 3:53 AM)36% (Jan 19, 3:53 PM)29.60 "Hg (Jan 25, 2:02 PM)
Average34 °F76%30.05 "Hg
* Reported Jan 15 3:53 PM — Jan 30 3:53 PM, Bloomington, Weather by CustomWeather, © 2014

Note: Actual official high and low records may vary slightly from our data, if they occured in-between our weather recording intervals... More about our weather records

Advertising

Bloomington weather history for previous 24 hours

 ConditionsComfort  
Time TempWeatherWind HumidityBarometerVisibility
3:53 PM
Jan 30
36 °FSunny.6 mph42%30.46 "Hg10 mi
2:53 PM35 °FSunny.5 mph44%30.46 "Hg10 mi
1:53 PM33 °FSunny.No wind48%30.46 "Hg10 mi
12:53 PM34 °FSunny.9 mph46%30.49 "Hg10 mi
11:53 AM32 °FSunny.7 mph50%30.52 "Hg10 mi
10:53 AM31 °FSunny.14 mph52%30.51 "Hg10 mi
9:53 AM29 °FMostly cloudy.15 mph69%30.48 "Hg10 mi
8:53 AM30 °FOvercast.10 mph72%30.45 "Hg10 mi
8:00 AM29 °FMore clouds than sun.14 mph75%30.41 "Hg10 mi
6:53 AM32 °FOvercast.8 mph69%30.40 "Hg10 mi
5:53 AM32 °FMostly cloudy.8 mph75%30.36 "Hg10 mi
5:01 AM33 °FMostly cloudy.8 mph75%30.33 "Hg10 mi
3:53 AM33 °FOvercast.8 mph75%30.33 "Hg10 mi
2:53 AM34 °FMostly cloudy.9 mph70%30.31 "Hg10 mi
2:01 AM34 °FOvercast.8 mph70%30.28 "Hg10 mi
1:04 AM34 °FMostly cloudy.8 mph70%30.27 "Hg10 mi
12:53 AM34 °FMostly cloudy.8 mph79%30.28 "Hg10 mi
11:53 PM
Jan 29
34 °FLight rain. Mostly cloudy.9 mph85%30.28 "Hg8 mi
10:53 PM35 °FOvercast.6 mph72%30.26 "Hg10 mi
9:53 PM34 °FMostly cloudy.7 mph85%30.25 "Hg9 mi
8:53 PM34 °FMostly cloudy.7 mph85%30.22 "Hg8 mi
7:53 PM34 °FOvercast.8 mph88%30.20 "Hg7 mi
6:53 PM34 °FMostly cloudy.9 mph82%30.17 "Hg9 mi
5:53 PM35 °FMostly cloudy.10 mph75%30.13 "Hg7 mi
Weather by CustomWeather, © 2014

See weather overviewHow to use our weather pages